カタログに戻る

COSMOS 1275 DEB

運用中PO
NORAD 13456·DEBRIS·🇷🇺 Russia

打ち上げ Jun 4, 1981 から Plesetsk Cosmodrome

Loading…

次のパス (今後24時間)

TLE

最新Source: Space-Track

元期: Sep 14, 2026, 01:34 UTC

1 13456U 81053FC  26257.06534413  .00002988  00000-0  22572-2 0  9991
2 13456  82.8276 293.1812 0147475 162.0835 227.0303 13.88812482224508

AllMySatでCOSMOS 1275 DEBをリアルタイム追跡

Download on the App Store